COSMOS 249 DEB, 3695

Orbit data source: Space-Track

COSMOS 249 DEB, 3695 is space debris in LEO originally from a launch on Sun, 20 Oct 1968 UTC launched from the Tyuratam Missile And Space Complex (TTMTR). Debris objects in space refer to the collection of defunct objects orbiting the Earth. Examples of debris include non-operational satellites, rocket bodies, and fragments generated from explosions, collisions, or faulty payload assembly.

Loading next visibility...
Identifier
3695, 1968-091AL
Orbit
LEO
Country
Flag of CISCIS
Related business
Manufacturer
Unknown
Mission
Spacecraft
Bus & Motor
Unknown
Mass
Unknown
Launch date (UTC)
1968-10-20 (58 years ago)
Launch vehicle
Unknown
Launch site
Tyuratam Missile And Space Complex (TTMTR)
Object type
Payload
Rocket body
Debris
Shape & HBR
Unknown shape, 0.1 m
Radar Cross Section
Medium (>0.1 m² and <1 m²)

Expand to show TLE details & history
Last TLE update: 15 hours ago

TLE from 15 hours ago
0 COSMOS 249 DEB
1 03695U 68091AL  26174.59353477  .00001796  00000-0  20417-2 0  9999
2 03695  62.2448 234.0820 0641936 237.7674 115.9555 13.07434779673030
Epoch: 2026-06-23T14:14Z
TLE epoch observation values (Epoch: 2026-06-23T14:14:41.404Z)
Latitude
-0°
Longitude
108.64661°
Altitude
1,472.861 km
Speed
7.015 km/s
True Right ascension
15h 36m 19s
True Declination
0° 00' 00"
Sunlit
Object was in full shadow at epoch
Visualization orbit readout
Latitude
Unknown
Longitude
Unknown
Altitude
Unknown
Speed
Unknown
Apparent Right ascension
Unknown
Apparent Declination
Unknown
Sunlit
N/A
Visualization observer readout
Local Sidereal Time
16:37:49
Azimuth
Unknown
Elevation
Unknown
Doppler factor
Unknown
Orbital elements
Apogee altitude
1,720.614 km
Perigee altitude
743.558 km
Semi-major axis
7,610.223 km
Eccentricity
0.06419
Inclination
62.2448°
RAAN
234.082°
Arg. of periapsis
237.7674°
True anomaly
122.33175°
Mean anomaly
115.9555°
Eccentric anomaly
119.16716°
Mean motion
3.26924 °/min
Orbital period
110.12 mins
BSTAR
0.0020417
Loading maneuver chart data...
Computing Atmospheric mass density...

Documentation

Showing up to 5 results
|